map of MXJ home
Great Circle Mapper logo
MXJ - Airport
Location
City:  Minna, Nigeria
ICAO / IATA:DNMN / MXJ

Details
Type:Airport (Aerodrome, Airfield)
Use:Public/Civil
Latitude:939'08"N (9.652172)
Longitude:627'44"E (6.462256)
Datum:WGS 1984
Elevation:834 ft (254 m)
Variation:1.11W (WMM2015 magnetic declination)
0.10 annual change
Runways:1
Longest:11153 × 145 ft (3399 × 44 m), paved

Time
Time Zone:UTC+1
Local Time:

Weather
TAF:DNMN 050950Z 0512/0618 23010KT 9999 NSW BKN012 PROB30
TEMPO 0518/0524 06017G35KT BKN009 FEW019CB
BECMG 0600/0602 18004KT FEW008

Related Locations
Nearby:
Farthest:AAU: 12159 mi / 19568 km
Asau, WS

Find:

   beyond  
but within

Other Information
Maps:
NOTAMs:
Links:
Sources:

  
flag of Nigeria   

Sectional Chart

Flight Planning
at skyvector.com

Satellite Image

Google Maps Satellite view

 

Copyright © 2004-2015 Karl L. Swartz. All rights reserved.
The Great Circle Mapper name and logo are trademarks of the Great Circle Mapper.
All other trademarks mentioned herein belong to their respective owners.
Please see credits for attibutions and further copyright information.

  Follow gcmap on Facebook Follow gcmap on Twitter Follow gcmap on Google+

hCard Microformat

Geo Microformat